Year,Month,Day,Hour,Minute,Value (Times are PST for temperature in C)
2018,01,14,00,00,9.40
2018,01,14,00,01,9.40
2018,01,14,00,02,9.40
2018,01,14,00,03,9.40
2018,01,14,00,04,9.30
2018,01,14,00,05,9.30
2018,01,14,00,06,9.30
2018,01,14,00,07,9.30
2018,01,14,00,08,9.30
2018,01,14,00,09,9.30
2018,01,14,00,10,9.30
2018,01,14,00,11,9.30
2018,01,14,00,12,9.30
2018,01,14,00,13,9.30
2018,01,14,00,14,9.30
2018,01,14,00,15,9.30
2018,01,14,00,16,9.30
2018,01,14,00,17,9.40
2018,01,14,00,18,9.40
2018,01,14,00,19,9.40
2018,01,14,00,20,9.40
2018,01,14,00,21,9.40
2018,01,14,00,22,9.40
2018,01,14,00,23,9.40
2018,01,14,00,24,9.40
2018,01,14,00,25,9.50
2018,01,14,00,26,9.50
2018,01,14,00,27,9.50
2018,01,14,00,28,9.50
2018,01,14,00,29,9.50
2018,01,14,00,30,9.60
2018,01,14,00,31,9.60
2018,01,14,00,32,9.60
2018,01,14,00,33,9.60
2018,01,14,00,34,9.60
2018,01,14,00,35,9.60
2018,01,14,00,36,9.60
2018,01,14,00,37,9.60
2018,01,14,00,38,9.60
2018,01,14,00,39,9.60
2018,01,14,00,40,9.60
2018,01,14,00,41,9.60
2018,01,14,00,42,9.60
2018,01,14,00,43,9.60
2018,01,14,00,44,9.60
2018,01,14,00,45,9.60
2018,01,14,00,46,9.60
2018,01,14,00,47,9.70
2018,01,14,00,48,9.70
2018,01,14,00,49,9.70
2018,01,14,00,50,9.70
2018,01,14,00,51,9.70
2018,01,14,00,52,9.60
2018,01,14,00,53,9.60
2018,01,14,00,54,9.60
2018,01,14,00,55,9.60
2018,01,14,00,56,9.60
2018,01,14,00,57,9.60
2018,01,14,00,58,9.60
2018,01,14,00,59,9.60
2018,01,14,01,00,9.60
2018,01,14,01,01,9.60
2018,01,14,01,02,9.60
2018,01,14,01,03,9.60
2018,01,14,01,04,9.60
2018,01,14,01,05,9.60
2018,01,14,01,06,9.60
2018,01,14,01,07,9.60
2018,01,14,01,08,9.60
2018,01,14,01,09,9.50
2018,01,14,01,10,9.50
2018,01,14,01,11,9.50
2018,01,14,01,12,9.50
2018,01,14,01,13,9.50
2018,01,14,01,14,9.40
2018,01,14,01,15,9.40
2018,01,14,01,16,9.40
2018,01,14,01,17,9.40
2018,01,14,01,18,9.40
2018,01,14,01,19,9.40
2018,01,14,01,20,9.40
2018,01,14,01,21,9.40
2018,01,14,01,22,9.40
2018,01,14,01,23,9.40
2018,01,14,01,24,9.40
2018,01,14,01,25,9.40
2018,01,14,01,26,9.40
2018,01,14,01,27,9.40
2018,01,14,01,28,9.40
2018,01,14,01,29,9.40
2018,01,14,01,30,9.40
2018,01,14,01,31,9.40
2018,01,14,01,32,9.40
2018,01,14,01,33,9.40
2018,01,14,01,34,9.40
2018,01,14,01,35,9.40
2018,01,14,01,36,9.30
2018,01,14,01,37,9.30
2018,01,14,01,38,9.30
2018,01,14,01,39,9.30
2018,01,14,01,40,9.40
2018,01,14,01,41,9.40
2018,01,14,01,42,9.40
2018,01,14,01,43,9.50
2018,01,14,01,44,9.50
2018,01,14,01,45,9.50
2018,01,14,01,46,9.60
2018,01,14,01,47,9.70
2018,01,14,01,48,9.70
2018,01,14,01,49,9.80
2018,01,14,01,50,9.80
2018,01,14,01,51,9.90
2018,01,14,01,52,9.90
2018,01,14,01,53,9.90
2018,01,14,01,54,9.90
2018,01,14,01,55,10.00
2018,01,14,01,56,10.00
2018,01,14,01,57,10.10
2018,01,14,01,58,10.10
2018,01,14,01,59,10.20
2018,01,14,02,00,10.20
2018,01,14,02,01,10.20
2018,01,14,02,02,10.30
2018,01,14,02,03,10.30
2018,01,14,02,04,10.30
2018,01,14,02,05,10.30
2018,01,14,02,06,10.30
2018,01,14,02,07,10.30
2018,01,14,02,08,10.30
2018,01,14,02,09,10.30
2018,01,14,02,10,10.30
2018,01,14,02,11,10.30
2018,01,14,02,12,10.30
2018,01,14,02,13,10.20
2018,01,14,02,14,10.20
2018,01,14,02,15,10.20
2018,01,14,02,16,10.20
2018,01,14,02,17,10.20
2018,01,14,02,18,10.10
2018,01,14,02,19,10.10
2018,01,14,02,20,10.10
2018,01,14,02,21,10.10
2018,01,14,02,22,10.10
2018,01,14,02,23,10.00
2018,01,14,02,24,10.00
2018,01,14,02,25,10.00
2018,01,14,02,26,10.00
2018,01,14,02,27,10.00
2018,01,14,02,28,10.00
2018,01,14,02,29,10.00
2018,01,14,02,30,10.00
2018,01,14,02,31,10.00
2018,01,14,02,32,10.00
2018,01,14,02,33,10.00
2018,01,14,02,34,10.10
2018,01,14,02,35,10.10
2018,01,14,02,36,10.20
2018,01,14,02,37,10.20
2018,01,14,02,38,10.30
2018,01,14,02,39,10.30
2018,01,14,02,40,10.30
2018,01,14,02,41,10.30
2018,01,14,02,42,10.40
2018,01,14,02,43,10.40
2018,01,14,02,44,10.40
2018,01,14,02,45,10.40
2018,01,14,02,46,10.40
2018,01,14,02,47,10.40
2018,01,14,02,48,10.40
2018,01,14,02,49,10.40
2018,01,14,02,50,10.40
2018,01,14,02,51,10.40
2018,01,14,02,52,10.40
2018,01,14,02,53,10.40
2018,01,14,02,54,10.40
2018,01,14,02,55,10.40
2018,01,14,02,56,10.40
2018,01,14,02,57,10.40
2018,01,14,02,58,10.40
2018,01,14,02,59,10.40
2018,01,14,03,00,10.40
2018,01,14,03,01,10.40
2018,01,14,03,02,10.40
2018,01,14,03,03,10.40
2018,01,14,03,04,10.40
2018,01,14,03,05,10.30
2018,01,14,03,06,10.30
2018,01,14,03,07,10.30
2018,01,14,03,08,10.30
2018,01,14,03,09,10.30
2018,01,14,03,10,10.30
2018,01,14,03,11,10.30
2018,01,14,03,12,10.30
2018,01,14,03,13,10.30
2018,01,14,03,14,10.30
2018,01,14,03,15,10.30
2018,01,14,03,16,10.30
2018,01,14,03,17,10.30
2018,01,14,03,18,10.30
2018,01,14,03,19,10.30
2018,01,14,03,20,10.30
2018,01,14,03,21,10.30
2018,01,14,03,22,10.40
2018,01,14,03,23,10.40
2018,01,14,03,24,10.40
2018,01,14,03,25,10.40
2018,01,14,03,26,10.40
2018,01,14,03,27,10.30
2018,01,14,03,28,10.30
2018,01,14,03,29,10.30
2018,01,14,03,30,10.30
2018,01,14,03,31,10.30
2018,01,14,03,32,10.30
2018,01,14,03,33,10.30
2018,01,14,03,34,10.30
2018,01,14,03,35,10.30
2018,01,14,03,36,10.30
2018,01,14,03,37,10.30
2018,01,14,03,38,10.30
2018,01,14,03,39,10.30
2018,01,14,03,40,10.30
2018,01,14,03,41,10.30
2018,01,14,03,42,10.30
2018,01,14,03,43,10.30
2018,01,14,03,44,10.30
2018,01,14,03,45,10.30
2018,01,14,03,46,10.30
2018,01,14,03,47,10.30
2018,01,14,03,48,10.30
2018,01,14,03,49,10.30
2018,01,14,03,50,10.40
2018,01,14,03,51,10.40
2018,01,14,03,52,10.40
2018,01,14,03,53,10.40
2018,01,14,03,54,10.40
2018,01,14,03,55,10.40
2018,01,14,03,56,10.50
2018,01,14,03,57,10.60
2018,01,14,03,58,10.60
2018,01,14,03,59,10.70
2018,01,14,04,00,10.70
2018,01,14,04,01,10.80
2018,01,14,04,02,10.80
2018,01,14,04,03,10.80
2018,01,14,04,04,10.80
2018,01,14,04,05,10.80
2018,01,14,04,06,10.80
2018,01,14,04,07,10.80
2018,01,14,04,08,10.80
2018,01,14,04,09,10.80
2018,01,14,04,10,10.80
2018,01,14,04,11,10.80
2018,01,14,04,12,10.80
2018,01,14,04,13,10.70
2018,01,14,04,14,10.70
2018,01,14,04,15,10.70
2018,01,14,04,16,10.70
2018,01,14,04,17,10.70
2018,01,14,04,18,10.70
2018,01,14,04,19,10.70
2018,01,14,04,20,10.70
2018,01,14,04,21,10.60
2018,01,14,04,22,10.60
2018,01,14,04,23,10.60
2018,01,14,04,24,10.60
2018,01,14,04,25,10.60
2018,01,14,04,26,10.50
2018,01,14,04,27,10.50
2018,01,14,04,28,10.50
2018,01,14,04,29,10.40
2018,01,14,04,30,10.40
2018,01,14,04,31,10.40
2018,01,14,04,32,10.40
2018,01,14,04,33,10.40
2018,01,14,04,34,10.40
2018,01,14,04,35,10.40
2018,01,14,04,36,10.30
2018,01,14,04,37,10.30
2018,01,14,04,38,10.30
2018,01,14,04,39,10.20
2018,01,14,04,40,10.20
2018,01,14,04,41,10.20
2018,01,14,04,42,10.20
2018,01,14,04,43,10.20
2018,01,14,04,44,10.20
2018,01,14,04,45,10.20
2018,01,14,04,46,10.20
2018,01,14,04,47,10.30
2018,01,14,04,48,10.30
2018,01,14,04,49,10.20
2018,01,14,04,50,10.20
2018,01,14,04,51,10.20
2018,01,14,04,52,10.20
2018,01,14,04,53,10.20
2018,01,14,04,54,10.20
2018,01,14,04,55,10.20
2018,01,14,04,56,10.20
2018,01,14,04,57,10.20
2018,01,14,04,58,10.20
2018,01,14,04,59,10.20
2018,01,14,05,00,10.20
2018,01,14,05,01,10.20
2018,01,14,05,02,10.20
2018,01,14,05,03,10.20
2018,01,14,08,44,10.60
2018,01,14,08,45,10.60
2018,01,14,08,46,10.60
2018,01,14,08,47,10.60
2018,01,14,08,48,10.60
2018,01,14,08,49,10.70
2018,01,14,08,50,10.70
2018,01,14,08,51,10.70
2018,01,14,08,52,10.70
2018,01,14,08,53,10.70
2018,01,14,08,54,10.70
2018,01,14,08,55,10.70
2018,01,14,08,56,10.70
2018,01,14,08,57,10.70
2018,01,14,08,58,10.70
2018,01,14,08,59,10.70
2018,01,14,09,00,10.70
2018,01,14,09,01,10.70
2018,01,14,09,02,10.70
2018,01,14,09,03,10.70
2018,01,14,09,04,10.70
2018,01,14,09,05,10.70
2018,01,14,09,06,10.70
2018,01,14,09,07,10.70
2018,01,14,09,08,10.70
2018,01,14,09,09,10.70
2018,01,14,09,10,10.70
2018,01,14,09,11,10.70
2018,01,14,09,12,10.70
2018,01,14,09,13,10.70
2018,01,14,09,14,10.70
2018,01,14,09,15,10.60
2018,01,14,09,16,10.60
2018,01,14,09,17,10.60
2018,01,14,09,18,10.60
2018,01,14,09,19,10.60
2018,01,14,09,20,10.60
2018,01,14,09,21,10.60
2018,01,14,09,22,10.60
2018,01,14,09,23,10.60
2018,01,14,09,24,10.70
2018,01,14,09,25,10.70
2018,01,14,09,26,10.70
2018,01,14,09,27,10.70
2018,01,14,09,28,10.70
2018,01,14,09,29,10.70
2018,01,14,09,30,10.70
2018,01,14,09,31,10.70
2018,01,14,09,32,10.70
2018,01,14,09,33,10.70
2018,01,14,09,34,10.70
2018,01,14,09,35,10.70
2018,01,14,09,36,10.70
2018,01,14,09,37,10.70
2018,01,14,09,38,10.80
2018,01,14,09,39,10.80
2018,01,14,09,40,10.80
2018,01,14,09,41,10.80
2018,01,14,09,42,10.80
2018,01,14,09,43,10.90
2018,01,14,09,44,10.90
2018,01,14,09,45,10.90
2018,01,14,09,46,10.90
2018,01,14,09,47,11.00
2018,01,14,09,48,11.00
2018,01,14,09,49,11.00
2018,01,14,09,50,11.00
2018,01,14,09,51,11.00
2018,01,14,09,52,11.00
2018,01,14,09,53,11.10
2018,01,14,09,54,11.10
2018,01,14,09,55,11.10
2018,01,14,09,56,11.10
2018,01,14,09,57,11.10
2018,01,14,09,58,11.10
2018,01,14,09,59,11.10
2018,01,14,10,00,11.10
2018,01,14,10,01,11.10
2018,01,14,10,02,11.10
2018,01,14,10,03,11.10
2018,01,14,10,04,11.10
2018,01,14,10,05,11.10
2018,01,14,10,06,11.10
2018,01,14,10,07,11.20
2018,01,14,10,08,11.20
2018,01,14,10,09,11.20
2018,01,14,10,10,11.20
2018,01,14,10,11,11.20
2018,01,14,10,12,11.20
2018,01,14,10,13,11.30
2018,01,14,10,14,11.30
2018,01,14,10,15,11.30
2018,01,14,10,16,11.30
2018,01,14,10,17,11.30
2018,01,14,10,18,11.30
2018,01,14,10,19,11.30
2018,01,14,10,20,11.30
2018,01,14,10,21,11.30
2018,01,14,10,22,11.30
2018,01,14,10,23,11.30
2018,01,14,10,24,11.30
2018,01,14,10,25,11.30
2018,01,14,10,26,11.30
2018,01,14,10,27,11.30
2018,01,14,10,28,11.30
2018,01,14,10,29,11.30
2018,01,14,10,30,11.30
2018,01,14,10,31,11.30
2018,01,14,10,32,11.30
2018,01,14,10,33,11.30
2018,01,14,10,34,11.30
2018,01,14,10,35,11.30
2018,01,14,10,36,11.30
2018,01,14,10,37,11.30
2018,01,14,10,38,11.30
2018,01,14,10,39,11.40
2018,01,14,10,40,11.40
2018,01,14,10,41,11.40
2018,01,14,10,42,11.40
2018,01,14,10,43,11.40
2018,01,14,10,44,11.40
2018,01,14,10,45,11.40
2018,01,14,10,46,11.40
2018,01,14,10,47,11.40
2018,01,14,10,48,11.40
2018,01,14,10,49,11.40
2018,01,14,10,50,11.40
2018,01,14,10,51,11.40
2018,01,14,10,52,11.40
2018,01,14,10,53,11.40
2018,01,14,10,54,11.40
2018,01,14,10,55,11.40
2018,01,14,10,56,11.40
2018,01,14,10,57,11.40
2018,01,14,10,58,11.50
2018,01,14,10,59,11.50
2018,01,14,11,00,11.50
2018,01,14,11,01,11.50
2018,01,14,11,02,11.60
2018,01,14,11,03,11.60
2018,01,14,11,04,11.60
2018,01,14,11,05,11.60
2018,01,14,11,06,11.70
2018,01,14,11,07,11.70
2018,01,14,11,08,11.70
2018,01,14,11,09,11.80
2018,01,14,11,10,11.80
2018,01,14,11,11,11.80
2018,01,14,11,12,11.90
2018,01,14,11,13,11.90
2018,01,14,11,14,11.90
2018,01,14,11,15,11.90
2018,01,14,11,16,11.90
2018,01,14,11,17,12.00
2018,01,14,11,18,12.00
2018,01,14,11,19,12.00
2018,01,14,11,20,12.00
2018,01,14,11,21,12.10
2018,01,14,11,22,12.10
2018,01,14,11,23,12.10
2018,01,14,11,24,12.10
2018,01,14,11,25,12.10
2018,01,14,11,26,12.20
2018,01,14,11,27,12.20
2018,01,14,11,28,12.20
2018,01,14,11,29,12.30
2018,01,14,11,30,12.30
2018,01,14,11,31,12.30
2018,01,14,11,32,12.40
2018,01,14,11,33,12.40
2018,01,14,11,34,12.40
2018,01,14,11,35,12.40
2018,01,14,11,36,12.50
2018,01,14,11,37,12.50
2018,01,14,11,38,12.60
2018,01,14,11,39,12.60
2018,01,14,11,40,12.60
2018,01,14,11,41,12.70
2018,01,14,11,42,12.70
2018,01,14,11,43,12.70
2018,01,14,11,44,12.70
2018,01,14,11,45,12.80
2018,01,14,11,46,12.80
2018,01,14,11,47,12.80
2018,01,14,11,48,12.90
2018,01,14,11,49,12.90
2018,01,14,11,50,12.90
2018,01,14,11,51,12.90
2018,01,14,11,52,12.90
2018,01,14,11,53,12.90
2018,01,14,11,54,12.90
2018,01,14,11,55,12.90
2018,01,14,11,56,12.90
2018,01,14,11,57,12.90
2018,01,14,11,58,12.90
2018,01,14,11,59,12.90
2018,01,14,12,00,12.90
2018,01,14,12,01,12.90
2018,01,14,12,02,12.90
2018,01,14,12,03,12.80
2018,01,14,12,04,12.80
2018,01,14,12,05,12.80
2018,01,14,12,06,12.90
2018,01,14,12,07,12.90
2018,01,14,12,08,12.90
2018,01,14,12,09,12.90
2018,01,14,12,10,12.90
2018,01,14,12,11,12.90
2018,01,14,12,12,12.90
2018,01,14,12,13,12.90
2018,01,14,12,14,12.90
2018,01,14,12,15,13.00
2018,01,14,12,16,13.00
2018,01,14,12,17,13.10
2018,01,14,12,18,13.10
2018,01,14,12,19,13.10
2018,01,14,12,20,13.10
2018,01,14,12,21,13.10
2018,01,14,12,22,13.10
2018,01,14,12,23,13.20
2018,01,14,12,24,13.20
2018,01,14,12,25,13.20
2018,01,14,12,26,13.20
2018,01,14,12,27,13.20
2018,01,14,12,28,13.20
2018,01,14,12,29,13.20
2018,01,14,12,30,13.20
2018,01,14,12,31,13.20
2018,01,14,12,32,13.20
2018,01,14,12,33,13.20
2018,01,14,12,34,13.20
2018,01,14,12,35,13.20
2018,01,14,12,36,13.20
2018,01,14,12,37,13.20
2018,01,14,12,38,13.20
2018,01,14,12,39,13.20
2018,01,14,12,40,13.20
2018,01,14,12,41,13.20
2018,01,14,12,42,13.20
2018,01,14,12,43,13.20
2018,01,14,12,44,13.30
2018,01,14,12,45,13.30
2018,01,14,12,46,13.30
2018,01,14,12,47,13.30
2018,01,14,12,48,13.30
2018,01,14,12,49,13.30
2018,01,14,12,50,13.30
2018,01,14,12,51,13.30
2018,01,14,12,52,13.40
2018,01,14,12,53,13.40
2018,01,14,12,54,13.40
2018,01,14,12,55,13.50
2018,01,14,12,56,13.50
2018,01,14,12,57,13.50
2018,01,14,12,58,13.50
2018,01,14,12,59,13.40
2018,01,14,13,00,13.40
2018,01,14,13,01,13.40
2018,01,14,13,02,13.40
2018,01,14,13,03,13.40
2018,01,14,13,04,13.40
2018,01,14,13,05,13.40
2018,01,14,13,06,13.40
2018,01,14,13,07,13.30
2018,01,14,13,08,13.20
2018,01,14,13,09,13.20
2018,01,14,13,10,13.20
2018,01,14,13,11,13.10
2018,01,14,13,12,12.90
2018,01,14,13,13,12.80
2018,01,14,13,14,12.70
2018,01,14,13,15,12.70
2018,01,14,13,16,12.70
2018,01,14,13,17,12.70
2018,01,14,13,18,12.70
2018,01,14,13,19,12.70
2018,01,14,13,20,12.50
2018,01,14,13,21,12.30
2018,01,14,13,22,12.20
2018,01,14,13,23,12.20
2018,01,14,13,24,12.20
2018,01,14,13,25,12.10
2018,01,14,13,26,12.00
2018,01,14,13,27,11.90
2018,01,14,13,28,11.80
2018,01,14,13,29,11.70
2018,01,14,13,30,11.70
2018,01,14,13,31,11.60
2018,01,14,13,32,11.60
2018,01,14,13,33,11.50
2018,01,14,13,34,11.50
2018,01,14,13,35,11.50
2018,01,14,13,36,11.40
2018,01,14,13,37,11.30
2018,01,14,13,38,11.30
2018,01,14,13,39,11.20
2018,01,14,13,40,11.20
2018,01,14,13,41,11.20
2018,01,14,13,42,11.20
2018,01,14,13,43,11.20
2018,01,14,13,44,11.20
2018,01,14,13,45,11.20
2018,01,14,13,46,11.20
2018,01,14,13,47,11.20
2018,01,14,13,48,11.20
2018,01,14,13,49,11.20
2018,01,14,13,50,11.20
2018,01,14,13,51,11.20
2018,01,14,13,52,11.20
2018,01,14,13,53,11.20
2018,01,14,13,54,11.20
2018,01,14,13,55,11.20
2018,01,14,13,56,11.10
2018,01,14,13,57,11.10
2018,01,14,13,58,11.10
2018,01,14,13,59,11.10
2018,01,14,14,00,11.10
2018,01,14,14,01,11.10
2018,01,14,14,02,11.00
2018,01,14,14,03,11.00
2018,01,14,14,04,10.90
2018,01,14,14,05,10.90
2018,01,14,14,06,10.90
2018,01,14,14,07,10.90
2018,01,14,14,08,10.90
2018,01,14,14,09,10.90
2018,01,14,14,10,10.90
2018,01,14,14,11,10.90
2018,01,14,14,12,10.90
2018,01,14,14,13,10.90
2018,01,14,14,14,10.90
2018,01,14,14,15,10.90
2018,01,14,14,16,11.00
2018,01,14,14,17,10.90
2018,01,14,14,18,10.90
2018,01,14,14,19,10.90
2018,01,14,14,20,10.90
2018,01,14,14,21,10.80
2018,01,14,14,22,10.80
2018,01,14,14,23,10.80
2018,01,14,14,24,10.80
2018,01,14,14,25,10.70
2018,01,14,14,26,10.70
2018,01,14,14,27,10.70
2018,01,14,14,28,10.60
2018,01,14,14,29,10.60
2018,01,14,14,30,10.60
2018,01,14,14,31,10.50
2018,01,14,14,32,10.50
2018,01,14,14,33,10.50
2018,01,14,14,34,10.50
2018,01,14,14,35,10.40
2018,01,14,14,36,10.40
2018,01,14,14,37,10.50
2018,01,14,14,38,10.50
2018,01,14,14,39,10.50
2018,01,14,14,40,10.50
2018,01,14,14,41,10.50
2018,01,14,14,42,10.50
2018,01,14,14,43,10.50
2018,01,14,14,44,10.60
2018,01,14,14,45,10.60
2018,01,14,14,46,10.60
2018,01,14,14,47,10.60
2018,01,14,14,48,10.60
2018,01,14,14,49,10.60
2018,01,14,14,50,10.60
2018,01,14,14,51,10.60
2018,01,14,14,52,10.60
2018,01,14,14,53,10.70
2018,01,14,14,54,10.60
2018,01,14,14,55,10.60
2018,01,14,14,56,10.60
2018,01,14,14,57,10.60
2018,01,14,14,58,10.60
2018,01,14,14,59,10.60
2018,01,14,15,00,10.60
2018,01,14,15,01,10.60
2018,01,14,15,02,10.60
2018,01,14,15,03,10.50
2018,01,14,15,04,10.40
2018,01,14,15,05,10.40
2018,01,14,15,06,10.30
2018,01,14,15,07,10.30
2018,01,14,15,08,10.20
2018,01,14,15,09,10.20
2018,01,14,15,10,10.10
2018,01,14,15,11,10.00
2018,01,14,15,12,10.00
2018,01,14,15,13,9.90
2018,01,14,15,14,9.90
2018,01,14,15,15,9.90
2018,01,14,15,16,9.90
2018,01,14,15,17,9.90
2018,01,14,15,18,9.80
2018,01,14,15,19,9.80
2018,01,14,15,20,9.80
2018,01,14,15,21,9.80
2018,01,14,15,22,9.80
2018,01,14,15,23,9.80
2018,01,14,15,24,9.80
2018,01,14,15,25,9.80
2018,01,14,15,26,9.80
2018,01,14,15,27,9.80
2018,01,14,15,28,9.80
2018,01,14,15,29,9.80
2018,01,14,15,30,9.80
2018,01,14,15,31,9.80
2018,01,14,15,32,9.80
2018,01,14,15,33,9.80
2018,01,14,15,34,9.80
2018,01,14,15,35,9.80
2018,01,14,15,36,9.80
2018,01,14,15,37,9.70
2018,01,14,15,38,9.70
2018,01,14,15,39,9.70
2018,01,14,15,40,9.70
2018,01,14,15,41,9.70
2018,01,14,15,42,9.60
2018,01,14,15,43,9.60
2018,01,14,15,44,9.60
2018,01,14,15,45,9.60
2018,01,14,15,46,9.60
2018,01,14,15,47,9.50
2018,01,14,15,48,9.50
2018,01,14,15,49,9.50
2018,01,14,15,50,9.50
2018,01,14,15,51,9.40
2018,01,14,15,52,9.40
2018,01,14,15,53,9.40
2018,01,14,15,54,9.40
2018,01,14,15,55,9.40
2018,01,14,15,56,9.40
2018,01,14,15,57,9.40
2018,01,14,15,58,9.40
2018,01,14,15,59,9.40
2018,01,14,16,00,9.40
2018,01,14,16,01,9.30
2018,01,14,16,02,9.30
2018,01,14,16,03,9.30
2018,01,14,16,04,9.30
2018,01,14,16,05,9.30
2018,01,14,16,06,9.30
2018,01,14,16,07,9.30
2018,01,14,16,08,9.30
2018,01,14,16,09,9.30
2018,01,14,16,10,9.30
2018,01,14,16,11,9.30
2018,01,14,16,12,9.30
2018,01,14,16,13,9.30
2018,01,14,16,14,9.30
2018,01,14,16,15,9.30
2018,01,14,16,16,9.30
2018,01,14,16,17,9.30
2018,01,14,16,18,9.30
2018,01,14,16,19,9.30
2018,01,14,16,20,9.30
2018,01,14,16,21,9.30
2018,01,14,16,22,9.30
2018,01,14,16,23,9.30
2018,01,14,16,24,9.30
2018,01,14,16,25,9.30
2018,01,14,16,26,9.30
2018,01,14,16,27,9.30
2018,01,14,16,28,9.30
2018,01,14,16,29,9.30
2018,01,14,16,30,9.30
2018,01,14,16,31,9.30
2018,01,14,16,32,9.30
2018,01,14,16,33,9.40
2018,01,14,16,34,9.40
2018,01,14,16,35,9.40
2018,01,14,16,36,9.40
2018,01,14,16,37,9.40
2018,01,14,16,38,9.40
2018,01,14,16,39,9.40
2018,01,14,16,40,9.50
2018,01,14,16,41,9.50
2018,01,14,16,42,9.60
2018,01,14,16,43,9.60
2018,01,14,16,44,9.60
2018,01,14,16,45,9.60
2018,01,14,16,46,9.60
2018,01,14,16,47,9.60
2018,01,14,16,48,9.70
2018,01,14,16,49,9.80
2018,01,14,16,50,9.80
2018,01,14,16,51,9.90
2018,01,14,16,52,9.90
2018,01,14,16,53,10.00
2018,01,14,16,54,10.10
2018,01,14,16,55,10.20
2018,01,14,16,56,10.20
2018,01,14,16,57,10.20
2018,01,14,16,58,10.20
2018,01,14,16,59,10.30
2018,01,14,17,00,10.30
2018,01,14,17,01,10.30
2018,01,14,17,02,10.30
2018,01,14,17,03,10.40
2018,01,14,17,04,10.40
2018,01,14,17,05,10.40
2018,01,14,17,06,10.40
2018,01,14,17,07,10.40
2018,01,14,17,08,10.40
2018,01,14,17,09,10.40
2018,01,14,17,10,10.40
2018,01,14,17,11,10.50
2018,01,14,17,12,10.50
2018,01,14,17,13,10.50
2018,01,14,17,14,10.50
2018,01,14,17,15,10.50
2018,01,14,17,16,10.50
2018,01,14,17,17,10.40
2018,01,14,17,18,10.40
2018,01,14,17,19,10.40
2018,01,14,17,20,10.40
2018,01,14,17,21,10.40
2018,01,14,17,22,10.40
2018,01,14,17,23,10.50
2018,01,14,17,24,10.50
2018,01,14,17,25,10.50
2018,01,14,17,26,10.50
2018,01,14,17,27,10.50
2018,01,14,17,28,10.50
2018,01,14,17,29,10.40
2018,01,14,17,30,10.40
2018,01,14,17,31,10.40
2018,01,14,17,32,10.40
2018,01,14,17,33,10.40
2018,01,14,17,34,10.40
2018,01,14,17,35,10.30
2018,01,14,17,36,10.30
2018,01,14,17,37,10.30
2018,01,14,17,38,10.30
2018,01,14,17,39,10.30
2018,01,14,17,40,10.30
2018,01,14,17,41,10.30
2018,01,14,17,42,10.30
2018,01,14,17,43,10.30
2018,01,14,17,44,10.30
2018,01,14,17,45,10.30
2018,01,14,17,46,10.30
2018,01,14,17,47,10.30
2018,01,14,17,48,10.30
2018,01,14,17,49,10.30
2018,01,14,17,50,10.20
2018,01,14,17,51,10.20
2018,01,14,17,52,10.10
2018,01,14,17,53,10.10
2018,01,14,17,54,10.10
2018,01,14,17,55,10.10
2018,01,14,17,56,10.00
2018,01,14,17,57,10.00
2018,01,14,17,58,10.00
2018,01,14,17,59,9.90
2018,01,14,18,00,9.90
2018,01,14,18,01,9.90
2018,01,14,18,02,9.80
2018,01,14,18,03,9.80
2018,01,14,18,04,9.80
2018,01,14,18,05,9.80
2018,01,14,18,06,9.70
2018,01,14,18,07,9.70
2018,01,14,18,08,9.70
2018,01,14,18,09,9.70
2018,01,14,18,10,9.60
2018,01,14,18,11,9.60
2018,01,14,18,12,9.60
2018,01,14,18,13,9.60
2018,01,14,18,14,9.60
2018,01,14,18,15,9.50
2018,01,14,18,16,9.50
2018,01,14,18,17,9.50
2018,01,14,18,18,9.50
2018,01,14,18,19,9.50
2018,01,14,18,20,9.50
2018,01,14,18,21,9.50
2018,01,14,18,22,9.50
2018,01,14,18,23,9.60
2018,01,14,18,24,9.60
2018,01,14,18,25,9.60
2018,01,14,18,26,9.60
2018,01,14,18,27,9.60
2018,01,14,18,28,9.70
2018,01,14,18,29,9.70
2018,01,14,18,30,9.70
2018,01,14,18,31,9.70
2018,01,14,18,32,9.70
2018,01,14,18,33,9.70
2018,01,14,18,34,9.70
2018,01,14,18,35,9.70
2018,01,14,18,36,9.70
2018,01,14,18,37,9.70
2018,01,14,18,38,9.70
2018,01,14,18,39,9.60
2018,01,14,18,40,9.60
2018,01,14,18,41,9.60
2018,01,14,18,42,9.60
2018,01,14,18,43,9.60
2018,01,14,18,44,9.60
2018,01,14,18,45,9.60
2018,01,14,18,46,9.50
2018,01,14,18,47,9.50
2018,01,14,18,48,9.60
2018,01,14,18,49,9.50
2018,01,14,18,50,9.50
2018,01,14,18,51,9.50
2018,01,14,18,52,9.50
2018,01,14,18,53,9.50
2018,01,14,18,54,9.50
2018,01,14,18,55,9.50
2018,01,14,18,56,9.50
2018,01,14,18,57,9.50
2018,01,14,18,58,9.60
2018,01,14,18,59,9.60
2018,01,14,19,00,9.60
2018,01,14,19,01,9.60
2018,01,14,19,02,9.60
2018,01,14,19,03,9.60
2018,01,14,19,04,9.60
2018,01,14,19,05,9.60
2018,01,14,19,06,9.70
2018,01,14,19,07,9.70
2018,01,14,19,08,9.70
2018,01,14,19,09,9.70
2018,01,14,19,10,9.80
2018,01,14,19,11,9.80
2018,01,14,19,12,9.80
2018,01,14,19,13,9.80
2018,01,14,19,14,9.80
2018,01,14,19,15,9.80
2018,01,14,19,16,9.90
2018,01,14,19,17,9.90
2018,01,14,19,18,9.90
2018,01,14,19,19,10.00
2018,01,14,19,20,10.00
2018,01,14,19,21,10.00
2018,01,14,19,22,10.00
2018,01,14,19,23,10.10
2018,01,14,19,24,10.10
2018,01,14,19,25,10.10
2018,01,14,19,26,10.20
2018,01,14,19,27,10.10
2018,01,14,19,28,10.10
2018,01,14,19,29,10.10
2018,01,14,19,30,10.10
2018,01,14,19,31,10.00
2018,01,14,19,32,10.10
2018,01,14,19,33,10.10
2018,01,14,19,34,10.10
2018,01,14,19,35,10.00
2018,01,14,19,36,10.00
2018,01,14,19,37,10.00
2018,01,14,19,38,10.00
2018,01,14,19,39,10.10
2018,01,14,19,40,10.10
2018,01,14,19,41,10.10
2018,01,14,19,42,10.10
2018,01,14,19,43,10.10
2018,01,14,19,44,10.20
2018,01,14,19,45,10.20
2018,01,14,19,46,10.20
2018,01,14,19,47,10.20
2018,01,14,19,48,10.20
2018,01,14,19,49,10.10
2018,01,14,19,50,10.10
2018,01,14,19,51,10.10
2018,01,14,19,52,10.00
2018,01,14,19,53,10.00
2018,01,14,19,54,9.90
2018,01,14,19,55,10.00
2018,01,14,19,56,10.00
2018,01,14,19,57,9.90
2018,01,14,19,58,9.90
2018,01,14,19,59,9.90
2018,01,14,20,00,9.90
2018,01,14,20,01,9.90
2018,01,14,20,02,9.90
2018,01,14,20,03,10.00
2018,01,14,20,04,10.00
2018,01,14,20,05,10.10
2018,01,14,20,06,10.10
2018,01,14,20,07,10.10
2018,01,14,20,08,10.10
2018,01,14,20,09,10.10
2018,01,14,20,10,10.10
2018,01,14,20,11,10.20
2018,01,14,20,12,10.20
2018,01,14,20,13,10.20
2018,01,14,20,14,10.30
2018,01,14,20,15,10.30
2018,01,14,20,16,10.40
2018,01,14,20,17,10.50
2018,01,14,20,18,10.60
2018,01,14,20,19,10.60
2018,01,14,20,20,10.70
2018,01,14,20,21,10.80
2018,01,14,20,22,10.80
2018,01,14,20,23,10.80
2018,01,14,20,24,10.80
2018,01,14,20,25,10.80
2018,01,14,20,26,10.90
2018,01,14,20,27,10.90
2018,01,14,20,28,10.90
2018,01,14,20,29,10.90
2018,01,14,20,30,10.90
2018,01,14,20,31,10.90
2018,01,14,20,32,10.90
2018,01,14,20,33,10.90
2018,01,14,20,34,10.90
2018,01,14,20,35,10.90
2018,01,14,20,36,10.90
2018,01,14,20,37,10.80
2018,01,14,20,38,10.80
2018,01,14,20,39,10.80
2018,01,14,20,40,10.70
2018,01,14,20,41,10.70
2018,01,14,20,42,10.70
2018,01,14,20,43,10.70
2018,01,14,20,44,10.70
2018,01,14,20,45,10.60
2018,01,14,20,46,10.60
2018,01,14,20,47,10.60
2018,01,14,20,48,10.60
2018,01,14,20,49,10.60
2018,01,14,20,50,10.50
2018,01,14,20,51,10.50
2018,01,14,20,52,10.50
2018,01,14,20,53,10.50
2018,01,14,20,54,10.40
2018,01,14,20,55,10.40
2018,01,14,20,56,10.40
2018,01,14,20,57,10.40
2018,01,14,20,58,10.40
2018,01,14,20,59,10.40
2018,01,14,21,00,10.40
2018,01,14,21,01,10.50
2018,01,14,21,02,10.50
2018,01,14,21,03,10.50
2018,01,14,21,04,10.50
2018,01,14,21,05,10.50
2018,01,14,21,06,10.50
2018,01,14,21,07,10.50
2018,01,14,21,08,10.60
2018,01,14,21,09,10.60
2018,01,14,21,10,10.60
2018,01,14,21,11,10.60
2018,01,14,21,12,10.60